Regional Weather Roundup
Issued by NWS

Home | Current Version | Previous Version | Graphics & Text | Print | Product List | Glossary On
Versions: 1 2 3 4 5 6 7 8 9 10 11 12 13 14 15 16 17 18 19 20 21 22 23 24 25 26 27 28 29 30 31 32 33 34 35 36 37 38 39 40 41 42 43 44 45 46 47 48 49 50
000
ASUS44 KMEG 210710
RWRTN
TENNESSEE HOURLY STATE WEATHER ROUNDUP
NATIONAL WEATHER SERVICE MEMPHIS TN
200 AM CDT SAT OCT 21 2017

TNZ002-004-019-021-049-052-054-088>092-210800-
WEST TENNESSEE

CITY           SKY/WX    TMP DP  RH WIND       PRES   REMARKS
MEMPHIS INTL   MOCLDY    65  55  70 S9        30.09S
NWS MEMPHIS      N/A     61 N/A N/A MISG        N/A
JACKSON        CLOUDY    54  51  90 CALM      30.13R
DYERSBURG      PTCLDY    60  51  72 SE5       30.12R
SOMERVILLE     CLEAR     63  54  72 VRB6      30.10S
COVINGTON      CLEAR     57  54  88 SE3       30.11S
UNION CITY     CLEAR     57  50  77 SE7       30.11S
BOLIVAR        CLEAR     57  52  82 SE5       30.12R
HUNTINGDON     CLEAR     54  48  82 CALM      30.13R
LEXINGTON      CLEAR     48  48 100 CALM      30.15R
SELMER         CLEAR     59  50  72 SE7       30.13S
SAVANNAH       CLEAR     52  48  87 S6        30.14S
$$

TNZ008-025-027-028-033-062-065-066-210800-
NORTH MIDDLE TENNESSEE

CITY           SKY/WX    TMP DP  RH WIND       PRES   REMARKS
NASHVILLE      MOCLDY    51  48  89 S5        30.18S
PORTLAND       CLEAR     54  50  87 CALM      30.17S
CLARKSVILLE    PTCLDY    50  48  93 SE5       30.16R
SMYRNA         PTCLDY    46  46 100 CALM      30.19S FOG
COOKEVILLE     FOG       43  43 100 CALM      30.19S VSB 1/2
GALLATIN       CLEAR     48  46  93 CALM      30.20S
CROSSVILLE     CLOUDY    49  46  90 CALM      30.24S
$$

TNZ061-075-076-078-094-096-097-210800-
SOUTH MIDDLE TENNESSEE

CITY           SKY/WX    TMP DP  RH WIND       PRES   REMARKS
FAYETTEVILLE   CLEAR     52  48  87 CALM      30.19S
TULLAHOMA      CLEAR     45  43  93 CALM      30.21R
WINCHESTER     CLEAR     48  46  93 CALM        N/A
COLUMBIA       PTCLDY    46  46 100 CALM      30.16S
SHELBYVILLE    CLEAR     46  46 100 E5        30.19S
$$

TNZ017-018-042-046-047-210800-
NORTHEAST TENNESSEE

CITY           SKY/WX    TMP DP  RH WIND       PRES   REMARKS
TRI CITIES     PTCLDY    44  44 100 CALM      30.26S
ELIZABETHTON   CLEAR     50  45  81 CALM      30.27S
$$

TNZ012-013-036-069-073-074-210800-
CENTRAL EAST TENNESSEE

CITY           SKY/WX    TMP DP  RH WIND       PRES   REMARKS
KNOXVILLE      CLOUDY    52  52 100 NE3       30.22R
OAK RIDGE      CLOUDY    50  50 100 CALM      30.24S
DOWNTOWN KNOXV FOG       50  50 100 CALM      30.23F VSB 1/4
GATLINBURG     CLEAR     48  46  93 CALM      30.23S
MORRISTOWN     CLEAR     52  46  82 CALM      30.23S
JACKSBORO      CLEAR     46  46 100 CALM      30.28R
$$

TNZ083-085-099-210800-
SOUTHEAST TENNESSEE

CITY           SKY/WX    TMP DP  RH WIND       PRES   REMARKS
CHATTANOOGA    PTCLDY    53  51  93 CALM      30.23R
DAYTON         SUNNY     46  46 100 CALM      30.22R
$$

SKY/WX REPORTED AS FAIR MEANS FEW OR NO CLOUDS BELOW
12 THOUSAND FEET.





USA.gov is the U.S. government's official web portal to all federal, state and local government web resources and services.